Regional Weather Roundup
Issued by NWS Sioux Falls, SD

Home | Current Version | Previous Version | Text Only | Print | Product List | Glossary On
Versions: 1 2 3 4 5 6 7 8 9 10 11 12 13 14 15 16 17 18 19 20 21 22 23 24 25 26 27 28 29 30 31 32 33 34 35 36 37 38 39 40 41 42 43 44 45 46 47 48 49 50
000
ASUS43 KFSD 071010
RWRFSD

WEATHER ROUNDUP FOR SE SOUTH DAKOTA/SW MINNESOTA/NW IOWA
NATIONAL WEATHER SERVICE SIOUX FALLS SD
500 AM CDT TUE JUL 07 2015

NOTE: "FAIR" INDICATES FEW OR NO CLOUDS BELOW 12,000 FEET WITH NO
SIGNIFICANT WEATHER AND OR OBSTRUCTIONS TO VISIBILITY.


SDZ038>040-050-052>070-071100-
SOUTHEAST SOUTH DAKOTA

CITY           SKY/WX    TMP DP  RH WIND       PRES   REMARKS
BROOKINGS      CLEAR     50  45  81 N5        30.19R
CHAMBERLAIN    CLEAR     55  53  94 CALM      30.18S
HURON          CLEAR     52  51  97 N3        30.18R FOG
MADISON        FAIR      48  48 100 NE8       30.18R
MITCHELL       CLEAR     55  54  96 CALM      30.18S FOG
SIOUX FALLS    CLEAR     51  48  89 N6        30.17R
WINNER         FAIR      57  52  83 SE7       30.18S HAZE
YANKTON        CLEAR     52  48  87 N5        30.16R
$$

MNZ071-072-080-081-089-090-097-098-071100-
SOUTHWEST MINNESOTA

CITY           SKY/WX    TMP DP  RH WIND       PRES   REMARKS
FAIRMONT       CLEAR     52  43  71 NW9       30.12R
JACKSON        CLEAR     48  46  93 NW7       30.14R
LUVERNE        CLEAR     52  48  87 CALM      30.17R
MARSHALL       CLEAR     48  43  81 NW8       30.15S
MONTEVIDEO       N/A    N/A N/A N/A MISG        N/A
PIPESTONE      CLEAR     52  46  82 N3        30.17R
REDWOOD FALLS  CLEAR     51  47  86 N7        30.14R
TRACY          CLEAR     50  48  93 NW6       30.16R
WINDOM         CLEAR     50  46  87 NW7       30.15R
WORTHINGTON    CLEAR     48  43  81 NW7       30.16R
$$

IAZ001>003-012>014-020>022-031-032-NEZ013-014-SDZ071-071100-
NORTHWEST IOWA

CITY           SKY/WX    TMP DP  RH WIND       PRES   REMARKS
CHEROKEE       CLEAR     51  49  94 N3        30.13R
DENISON        CLEAR     54  50  87 VRB5      30.09R
ESTHERVILLE    CLEAR     48  46  93 NW8       30.12R
LE MARS        CLEAR     52  50  93 N5        30.15S
ORANGE CITY    CLEAR     52  48  87 N6        30.14F
SHELDON        CLEAR     48  48 100 N9        30.13S
SIOUX CITY     CLEAR     55  49  80 N8        30.14R
SPENCER        CLEAR     49  45  86 N7        30.12F
STORM LAKE     CLEAR     52  48  87 N10       30.12R
$$

ABBREVIATIONS USED IN REMARKS
   TC - TEMPERATURE IN CELSIUS
  WCI - WIND CHILL INDEX
   HX - HEAT INDEX
  VSB - VISIBILITY



USA.gov is the U.S. government's official web portal to all federal, state and local government web resources and services.